map of CEB home
Great Circle Mapper logo
CEB - Airport
Location
City:  Lapu-Lapu, Philippines
Name:Mactan-Cebu International Airport
ICAO / IATA:RPVM / CEB

Details
Type:Airport (Aerodrome, Airfield)
Use:Public/Civil, Military, International (customs port of entry)
Latitude:1018'27"N (10.307542)
Longitude:12358'46"E (123.979439)
Datum:WGS 1984
Elevation:31 ft (9 m)
Variation:1.14W (WMM2015 magnetic declination)
-0.11 annual change
Runways:1
Longest:10827 × 148 ft (3300 × 45 m), paved

Time
Time Zone:UTC+8
Local Time:

Weather
METAR:RPVM 231300Z VRB02KT 9999 FEW020 SCT300 29/24 Q1012 RMK A2988
TAF:RPVM 231100Z 2312/2418 22006KT 9999 FEW020 SCT300
TEMPO 2312/2318 17004KT FEW018CB BKN300
TEMPO 2318/2324 VRB04KT FEW020 SCT100

Related Locations
Nearby:
Farthest:SJPP: 12449 mi / 20035 km
Alta Floresta [Aero Rural], MT, BR

Find:

   beyond  
but within

Other Information
Maps:
NOTAMs:
Links:
Sources:

  
flag of Philippines   

Sectional Chart

Flight Planning
at skyvector.com

Satellite Image

Google Maps Satellite View

 

Copyright © 2004-2015 Karl L. Swartz. All rights reserved.
The Great Circle Mapper name and logo are trademarks of the Great Circle Mapper.
All other trademarks mentioned herein belong to their respective owners.
Please see credits for attibutions and further copyright information.

  Follow gcmap on Facebook Follow gcmap on Twitter Follow gcmap on Google+

hCard Microformat

Geo Microformat